Вернуться в каталог

STARLINK-32135

АктивенСвязьVLEO
NORAD 60277·PAYLOAD·🇺🇸 United States

Запущен Jul 27, 2024 с Cape Canaveral Space Force Station

Loading…

Ближайшие Пролёты (ближайшие 24 часа)

TLE

СвежийSource: CelesTrak SupGP

Эпоха: Sep 15, 2026, 02:39 UTC

1 60277C 24131Y   26258.11090278 -.00036529  00000+0 -10791-2 0  2588
2 60277  53.1566 250.5666 0001407  82.0524  86.4274 15.34414317    18

Отслеживайте STARLINK-32135 в реальном времени с AllMySat

Download on the App Store